Home > Weather > Vieux Fort > Past weeks

Flag for Saint Lucia Past Weather in Vieux Fort, Saint Lucia — Yesterday and Last 2 Weeks

Now
84 °F

Passing clouds.


Feels Like: 94 °F
Forecast: 81 / 86 °F
Wind: 14 mph from Southeast

Location: Hewanorra International Airport

Current Time: Jul 23, 2016 at 11:16:27 AM

Latest Report: Jul 23, 2016 at 10:00 AM


Visibility: N/A

Pressure: 29.98 "Hg

Humidity: 79%

Dew Point: 77 °F

Location of Vieux FortLocation

Past Weather in Vieux Fort — Graph

°F

Vieux Fort Temperature Yesterday

Maximum temperature yesterday: 88 °F (at 11:00 AM)
Minimum temperature yesterday: 79 °F (at 5:00 AM)
Average temperature yesterday: 83 °F

High & Low Weather Summary for the Past Weeks

 TemperatureHumidityPressure
High88 °F (Jul 8, 1:00 PM)100% (Jul 12, 4:00 AM)30.07 "Hg (Jul 12, 4:00 AM)
Low72 °F (Jul 12, 4:00 AM)62% (Jul 13, 3:00 PM)29.89 "Hg (Jul 15, 4:00 AM)
Average83 °F79%29.98 "Hg
* Reported Jul 8 10:00 AM — Jul 23 10:00 AM, Vieux Fort, Weather by CustomWeather, © 2016

Note: Actual official high and low records may vary slightly from our data, if they occured in-between our weather recording intervals... More about our weather records

Advertising

Vieux Fort Weather History for the Previous 24 Hours

Scroll right to see more
 ConditionsComfort  
Time TempWeatherWind HumidityBarometerVisibility
10:00 AM
Sat, Jul 23
84 °FPassing clouds.14 mph79%29.98 "HgN/A
9:00 AM82 °FRain showers. Partly sunny.21 mph79%29.98 "HgN/A
8:00 AM82 °FScattered clouds.15 mph79%29.95 "HgN/A
7:00 AM81 °FScattered showers. Scattered clouds.9 mph84%29.95 "HgN/A
6:00 AM79 °FPassing clouds.7 mph84%29.92 "HgN/A
5:00 AM79 °FScattered showers. Passing clouds.13 mph84%29.92 "HgN/A
4:00 AM81 °FPassing clouds.14 mph79%29.92 "HgN/A
3:00 AM79 °FPassing clouds.13 mph84%29.92 "HgN/A
2:00 AM81 °FScattered showers. Passing clouds.14 mph79%29.92 "HgN/A
1:00 AM81 °FPassing clouds.15 mph79%29.95 "HgN/A
12:00 AM79 °FPassing clouds.15 mph84%29.98 "HgN/A
11:00 PM
Fri, Jul 22
79 °FPassing clouds.7 mph84%29.98 "HgN/A
10:00 PM81 °FPassing clouds.9 mph84%29.98 "HgN/A
9:00 PM81 °FPassing clouds.6 mph84%29.95 "HgN/A
8:00 PM79 °FPassing clouds.7 mph89%29.95 "HgN/A
6:00 PM82 °FPassing clouds.9 mph74%29.92 "HgN/A
5:00 PM81 °FSprinkles. Scattered clouds.14 mph84%29.95 "HgN/A
4:02 PM86 °FPartly sunny.13 mph70%29.92 "HgN/A
3:00 PM88 °FScattered clouds.15 mph66%29.95 "HgN/A
2:00 PM88 °FPassing clouds.16 mph70%29.95 "HgN/A
1:00 PM86 °FScattered clouds.17 mph70%29.98 "HgN/A
12:00 PM86 °FScattered clouds.17 mph70%30.01 "HgN/A
11:00 AM88 °FScattered clouds.14 mph66%30.01 "HgN/A
Weather by CustomWeather, © 2016

See weather overviewHow to use our weather pages